| time (UTC) | temp F | wind direction | speed knots | gust knots | rain 1hr in | rain 24hr in | rain mn in | humidity % | barometer mb |
| 20260831231531 | 73 | 0 | 0.0 | 0.0 | 0.00 | 0.14 | 0.01 | 88 | 1018.2 |
| 20260831230034 | 73 | 0 | 0.0 | 0.0 | 0.00 | 0.14 | 0.01 | 87 | 1018.2 |
| 20260831224531 | 74 | 0 | 0.0 | 0.0 | 0.00 | 0.14 | 0.01 | 87 | 1018.3 |
| 20260831223037 | 74 | 0 | 0.0 | 0.0 | 0.00 | 0.14 | 0.01 | 87 | 1018.4 |
| 20260831221541 | 74 | 0 | 0.0 | 0.0 | 0.00 | 0.14 | 0.01 | 86 | 1018.5 |
| 20260831220034 | 74 | 0 | 0.0 | 0.0 | 0.00 | 0.14 | 0.01 | 86 | 1018.5 |
| 20260831214534 | 74 | 0 | 0.0 | 0.0 | 0.00 | 0.14 | 0.01 | 87 | 1018.7 |
| 20260831213030 | 74 | 0 | 0.0 | 0.0 | 0.00 | 0.14 | 0.01 | 86 | 1018.7 |
| 20260831211537 | 75 | 0 | 0.0 | 0.0 | 0.00 | 0.14 | 0.01 | 85 | 1018.6 |
| 20260831210031 | 75 | 0 | 0.0 | 0.0 | 0.00 | 0.14 | 0.01 | 85 | 1018.9 |
| 20260831204531 | 75 | 0 | 0.0 | 0.0 | 0.00 | 0.14 | 0.01 | 85 | 1018.9 |
| 20260831203043 | 75 | 0 | 0.0 | 0.0 | 0.00 | 0.14 | 0.01 | 85 | 1019.1 |
| 20260831201543 | 75 | 0 | 0.0 | 0.0 | 0.00 | 0.14 | 0.01 | 83 | 1019.2 |
| 20260831200034 | 75 | 0 | 0.0 | 0.0 | 0.00 | 0.14 | 0.01 | 84 | 1019.4 |
| 20260831194538 | 75 | 0 | 0.0 | 0.0 | 0.00 | 0.14 | 0.01 | 82 | 1019.5 |
| 20260831193031 | 74 | 0 | 0.0 | 0.0 | 0.00 | 0.14 | 0.01 | 84 | 1019.5 |
| 20260831191531 | 75 | 0 | 0.0 | 0.0 | 0.00 | 0.14 | 0.01 | 84 | 1019.5 |
| 20260831190032 | 75 | 0 | 0.0 | 0.0 | 0.00 | 0.14 | 0.01 | 82 | 1019.7 |
| 20260831184535 | 76 | 0 | 0.0 | 0.0 | 0.00 | 0.14 | 0.01 | 81 | 1019.9 |
| 20260831183030 | 76 | 0 | 0.0 | 0.0 | 0.00 | 0.14 | 0.01 | 78 | 1019.9 |
| 20260831181531 | 76 | 0 | 0.0 | 0.0 | 0.00 | 0.14 | 0.01 | 78 | 1020.0 |
| 20260831180034 | 76 | 0 | 0.0 | 0.0 | 0.00 | 0.14 | 0.01 | 81 | 1020.0 |
| 20260831174532 | 76 | 0 | 0.0 | 0.0 | 0.00 | 0.14 | 0.01 | 79 | 1020.2 |
| 20260831173034 | 76 | 0 | 0.0 | 0.0 | 0.00 | 0.14 | 0.01 | 77 | 1020.0 |
| 20260831171532 | 76 | 0 | 0.0 | 0.0 | 0.00 | 0.14 | 0.01 | 77 | 1020.0 |
| 20260831170033 | 75 | 0 | 0.0 | 0.0 | 0.00 | 0.14 | 0.01 | 80 | 1020.0 |
| 20260831164532 | 75 | 0 | 0.0 | 0.0 | 0.00 | 0.14 | 0.01 | 80 | 1020.1 |
| 20260831163036 | 74 | 0 | 0.0 | 7.0 | 0.00 | 0.14 | 0.01 | 83 | 1020.1 |
| 20260831161538 | 74 | 0 | 0.0 | 3.5 | 0.00 | 0.14 | 0.01 | 83 | 1020.0 |
| 20260831160034 | 73 | 0 | 0.0 | 0.0 | 0.00 | 0.14 | 0.01 | 85 | 1020.2 |
| 20260831154558 | 72 | 0 | 0.0 | 0.9 | 0.00 | 0.14 | 0.01 | 87 | 1020.2 |
| 20260831153032 | 72 | 0 | 0.0 | 1.7 | 0.00 | 0.14 | 0.01 | 89 | 1020.2 |
| 20260831151534 | 71 | 0 | 0.0 | 0.0 | 0.00 | 0.14 | 0.01 | 91 | 1020.3 |
| 20260831150038 | 70 | 0 | 0.0 | 0.9 | 0.00 | 0.14 | 0.01 | 93 | 1020.6 |
| 20260831144542 | 70 | 0 | 0.0 | 0.0 | 0.00 | 0.14 | 0.01 | 94 | 1020.5 |
| 20260831143031 | 69 | 0 | 0.0 | 0.0 | 0.00 | 0.14 | 0.01 | 95 | 1020.6 |
| 20260831141537 | 68 | 0 | 0.0 | 0.0 | 0.00 | 0.14 | 0.01 | 96 | 1020.5 |
| 20260831140036 | 68 | 0 | 0.0 | 0.0 | 0.00 | 0.14 | 0.01 | 97 | 1020.4 |
| 20260831134535 | 68 | 0 | 0.0 | 0.0 | 0.00 | 0.14 | 0.01 | 97 | 1020.4 |
| 20260831133104 | 68 | 0 | 0.0 | 1.7 | 0.00 | 0.14 | 0.01 | 97 | 1020.4 |
| 20260831131530 | 67 | 0 | 0.0 | 0.0 | 0.00 | 0.14 | 0.01 | 98 | 1020.4 |
| 20260831130031 | 67 | 0 | 0.0 | 0.0 | 0.00 | 0.14 | 0.01 | 97 | 1020.4 |
| 20260831124531 | 67 | 0 | 0.0 | 0.0 | 0.00 | 0.14 | 0.01 | 97 | 1020.4 |
| 20260831123033 | 67 | 0 | 0.0 | 0.0 | 0.00 | 0.14 | 0.01 | 98 | 1020.3 |
| 20260831121531 | 67 | 0 | 0.0 | 0.0 | 0.00 | 0.14 | 0.01 | 97 | 1020.3 |
| 20260831120038 | 66 | 0 | 0.0 | 0.0 | 0.00 | 0.14 | 0.01 | 98 | 1020.3 |
| 20260831114538 | 66 | 0 | 0.0 | 0.0 | 0.00 | 0.14 | 0.01 | 97 | 1019.9 |
| 20260831113034 | 66 | 0 | 0.0 | 0.0 | 0.00 | 0.14 | 0.01 | 97 | 1019.8 |
| 20260831111530 | 66 | 0 | 0.0 | 0.0 | 0.00 | 0.14 | 0.01 | 97 | 1019.4 |
| 20260831110041 | 66 | 0 | 0.0 | 0.0 | 0.00 | 0.14 | 0.01 | 97 | 1019.4 |
| 20260831104536 | 66 | 0 | 0.0 | 0.0 | 0.00 | 0.14 | 0.01 | 97 | 1019.6 |
| 20260831103034 | 66 | 0 | 0.0 | 0.0 | 0.00 | 0.14 | 0.01 | 97 | 1019.6 |
| 20260831101541 | 66 | 0 | 0.0 | 0.0 | 0.00 | 0.14 | 0.01 | 97 | 1019.5 |
| 20260831100034 | 67 | 0 | 0.0 | 0.0 | 0.00 | 0.14 | 0.01 | 97 | 1019.2 |
| 20260831094534 | 67 | 0 | 0.0 | 0.0 | 0.00 | 0.14 | 0.01 | 97 | 1019.1 |
| 20260831093038 | 67 | 0 | 0.0 | 0.0 | 0.01 | 0.14 | 0.01 | 97 | 1019.0 |
| 20260831091551 | 67 | 0 | 0.0 | 0.0 | 0.01 | 0.14 | 0.01 | 97 | 1018.8 |
| 20260831090034 | 67 | 0 | 0.0 | 0.0 | 0.01 | 0.14 | 0.01 | 97 | 1018.9 |
| 20260831084533 | 67 | 0 | 0.0 | 0.0 | 0.01 | 0.14 | 0.01 | 97 | 1018.9 |
| 20260831083034 | 67 | 0 | 0.0 | 0.0 | 0.00 | 0.13 | 0.00 | 97 | 1019.0 |
| 20260831081538 | 67 | 0 | 0.0 | 0.0 | 0.00 | 0.13 | 0.00 | 97 | 1019.0 |
| 20260831080055 | 68 | 0 | 0.0 | 0.0 | 0.00 | 0.13 | 0.00 | 97 | 1019.0 |
| 20260831074534 | 68 | 0 | 0.0 | 0.0 | 0.00 | 0.13 | 0.00 | 97 | 1018.9 |
| 20260831073057 | 68 | 0 | 0.0 | 0.0 | 0.00 | 0.13 | 0.00 | 97 | 1019.0 |
| 20260831071537 | 69 | 0 | 0.0 | 0.0 | 0.00 | 0.13 | 0.00 | 97 | 1019.1 |
| 20260831070036 | 69 | 0 | 0.0 | 0.0 | 0.00 | 0.13 | 0.00 | 97 | 1018.9 |
| 20260831064534 | 69 | 0 | 0.0 | 0.0 | 0.00 | 0.13 | 0.00 | 97 | 1018.9 |
| 20260831063036 | 69 | 0 | 0.0 | 0.0 | 0.00 | 0.13 | 0.00 | 97 | 1018.9 |
| 20260831061532 | 69 | 0 | 0.0 | 0.0 | 0.00 | 0.13 | 0.00 | 97 | 1018.9 |
| 20260831060031 | 69 | 0 | 0.0 | 0.0 | 0.00 | 0.13 | 0.00 | 96 | 1018.5 |
| 20260831054532 | 69 | 0 | 0.0 | 0.0 | 0.00 | 0.13 | 0.00 | 97 | 1018.7 |
| 20260831053037 | 70 | 0 | 0.0 | 0.0 | 0.00 | 0.13 | 0.00 | 97 | 1018.5 |
| 20260831051537 | 70 | 0 | 0.0 | 0.0 | 0.00 | 0.13 | 0.00 | 97 | 1018.9 |
| 20260831050035 | 70 | 0 | 0.0 | 0.0 | 0.00 | 0.13 | 0.00 | 97 | 1019.2 |
| 20260831044546 | 70 | 0 | 0.0 | 0.0 | 0.00 | 0.13 | 0.00 | 97 | 1019.2 |
| 20260831043034 | 70 | 0 | 0.0 | 0.0 | 0.00 | 0.13 | 0.00 | 97 | 1019.4 |
| 20260831041540 | 70 | 0 | 0.0 | 0.0 | 0.00 | 0.13 | 0.00 | 96 | 1019.3 |
| 20260831040032 | 71 | 0 | 0.0 | 0.0 | 0.06 | 0.13 | 0.00 | 96 | 1019.5 |
| 20260831034535 | 71 | 0 | 0.0 | 0.0 | 0.06 | 0.13 | 0.13 | 96 | 1019.3 |
| 20260831033038 | 71 | 0 | 0.0 | 0.0 | 0.06 | 0.13 | 0.13 | 96 | 1019.4 |
| 20260831031536 | 71 | 0 | 0.0 | 0.0 | 0.06 | 0.13 | 0.13 | 96 | 1019.3 |
| 20260831030033 | 72 | 0 | 0.0 | 0.0 | 0.00 | 0.07 | 0.07 | 96 | 1019.5 |
| 20260831024532 | 72 | 0 | 0.0 | 0.0 | 0.00 | 0.07 | 0.07 | 96 | 1019.1 |
| 20260831023033 | 72 | 0 | 0.0 | 0.9 | 0.00 | 0.07 | 0.07 | 96 | 1019.5 |
| 20260831021545 | 72 | 0 | 0.0 | 0.0 | 0.03 | 0.07 | 0.07 | 95 | 1019.3 |
| 20260831020031 | 72 | 0 | 0.0 | 1.7 | 0.07 | 0.07 | 0.07 | 95 | 1019.1 |
| 20260831014532 | 72 | 0 | 0.0 | 0.0 | 0.07 | 0.07 | 0.07 | 93 | 1019.0 |
| 20260831013042 | 72 | 0 | 0.0 | 0.0 | 0.07 | 0.07 | 0.07 | 92 | 1019.2 |
| 20260831011543 | 72 | 0 | 0.0 | 0.0 | 0.04 | 0.04 | 0.04 | 91 | 1019.4 |
| 20260831010044 | 72 | 0 | 0.0 | 0.0 | 0.00 | 0.00 | 0.00 | 90 | 1018.9 |
| 20260831004534 | 73 | 0 | 0.0 | 0.0 | 0.00 | 0.00 | 0.00 | 90 | 1018.8 |
| 20260831003034 | 73 | 0 | 0.0 | 0.0 | 0.00 | 0.00 | 0.00 | 89 | 1018.7 |
| 20260831001538 | 73 | 0 | 0.0 | 0.0 | 0.00 | 0.00 | 0.00 | 88 | 1018.5 |
| 20260831000035 | 74 | 0 | 0.0 | 0.0 | 0.00 | 0.00 | 0.00 | 88 | 1018.4 |
| 20260830234534 | 74 | 0 | 0.0 | 0.0 | 0.00 | 0.00 | 0.00 | 87 | 1018.4 |
| 20260830233034 | 75 | 0 | 0.0 | 0.0 | 0.00 | 0.00 | 0.00 | 85 | 1018.6 |